[[{"header":{"parameterUnit":"m.s-1","parameterCategory":1,"la1":30.2991,"la2":30.254,"lo1":-89.0895,"lo2":-89.0444,"dy":0.0017,"dx":0.0017,"nx":28,"ny":28,"refTime":"2024-09-29T21:00:00:Z","depth":0,"parameterNumber":2,"parameterNumberName":"U-component_of_WINDS"},"data":[0,0,0,0,0,0,0,0,0,0,0,0,0,0,0,0,0,0,0,0,0,0,0,0,0,0,0,0,0,0,0,0,0,0,0,0,0,0,0,0,0,0,0,0,0,0,0,0,0,0,0,0,0,0,0,0,0,0,2.0541,2.0542,0,2.0654,2.0655,2.0657,2.0628,2.0626,2.0624,2.0622,2.0741,2.0746,2.0752,0,0,0,0,0,0,0,0,0,0,0,0,0,2.0304,2.0308,2.0541,2.0542,2.0544,2.0654,2.0655,2.0657,2.0629,2.0626,2.0623,2.0621,2.074,2.0746,2.0752,0,0,0,0,0,0,0,0,0,0,0,0,0,2.0411,2.031,2.0541,2.0543,2.0544,2.0654,2.0656,2.0657,2.0629,2.0626,2.0622,2.0619,2.0738,2.0745,2.0753,2.0869,0,0,2.0777,2.0781,0,0,0,0,0,0,0,0,2.0405,2.042,2.0541,2.0543,2.0544,2.0623,2.0616,2.0728,2.063,2.0597,2.0622,2.0618,2.0705,2.0715,2.0744,2.0874,2.0879,2.0778,2.0783,2.0786,2.0788,0,0,0,0,0,0,0,2.0397,2.0415,2.0586,2.0543,2.0545,2.0539,2.0551,2.0637,2.0669,2.06,2.0598,2.0611,2.0705,2.0737,2.0747,2.0881,2.0778,2.0785,2.079,2.0793,2.1113,2.1117,0,0,0,0,0,0,2.0388,2.0409,2.0582,2.0589,2.0465,2.0546,2.0559,2.0602,2.0667,2.0674,2.0614,2.061,2.0725,2.0738,2.0751,2.0891,2.0786,2.0793,2.0798,2.1109,2.1114,2.1118,0,0,0,0,0,0,2.0383,2.0404,2.0578,2.0498,2.052,2.0554,2.0602,2.0606,2.0637,2.0678,2.0684,2.064,2.0723,2.074,2.084,2.0895,2.0797,2.0804,2.1105,2.1111,2.1116,2.1173,0,0,0,0,0,0,2.0376,2.0402,2.0446,2.05,2.0524,2.0663,2.0605,2.061,2.065,2.0645,2.0704,2.0711,2.0721,2.0828,2.0847,2.0904,2.081,2.11,2.1107,2.1114,2.1166,2.118,2.1191,0,0,0,0,0,2.0368,2.0458,2.0448,2.0469,2.0579,2.0667,2.0681,2.069,2.0654,2.0699,2.0726,2.0709,2.0886,2.0838,2.086,2.092,2.1097,2.1105,2.1114,2.116,2.1177,2.1191,0,0,0,0,0,0,2.0411,2.0465,2.0455,2.0564,2.0611,2.0662,2.0718,2.0707,2.0766,2.0759,2.0769,2.0783,2.0885,2.0912,2.0859,2.1036,2.0986,2.0999,2.1014,2.103,2.1043,2.1034,2.0817,0,0,0,0,0,2.0432,2.0498,2.0542,2.0634,2.0658,2.0684,2.0723,2.0726,2.0775,2.0795,2.0829,2.0879,2.0946,2.0989,2.1053,2.117,2.1183,2.1222,2.1234,2.1244,2.1256,2.1321,2.1339,2.1146,2.1146,2.1146,0,0,2.0479,2.0516,2.0557,2.0644,2.068,2.0749,2.0701,2.0776,2.0827,2.0807,2.0903,2.093,2.0986,2.1095,2.1145,2.1121,2.1312,2.1255,2.1263,2.1269,2.1331,2.135,2.1366,2.1152,2.1151,2.115,0,0,2.0599,2.0633,2.0714,2.0752,2.0807,2.0824,2.0843,2.0896,2.0913,2.1009,2.0995,2.1057,2.1172,2.1213,2.1248,2.1384,2.1371,2.1405,2.1471,2.1534,2.1549,2.1563,2.1612,2.1629,2.1416,2.1416,2.1416,0,2.065,2.0751,2.0758,2.0834,2.0873,2.0856,2.0939,2.0975,2.105,2.1078,2.105,2.1193,2.123,2.1349,2.1382,2.1411,2.1435,2.1398,2.1546,2.156,2.1572,2.162,2.1638,2.142,2.1419,2.1419,2.1419,0,2.0812,2.0883,2.0942,2.1012,2.1058,2.1137,2.1157,2.1203,2.1202,2.1222,2.1321,2.1364,2.1437,2.1465,2.1465,2.1584,2.1568,2.1543,2.1493,2.1595,2.1639,2.1657,2.1425,2.1424,2.1423,2.1422,0,0,2.0962,2.1035,2.1057,2.1089,2.1149,2.1204,2.1283,2.1353,2.1393,2.1444,2.1512,2.1609,2.1587,2.1627,2.1632,2.1687,2.1793,2.1656,2.1657,2.1681,2.1928,2.1947,2.1968,2.1784,2.1788,2.1791,2.1924,0,2.1088,2.1225,2.1233,2.1358,2.1425,2.141,2.1479,2.1524,2.1545,2.1605,2.1629,2.1698,2.1662,2.1687,2.1741,2.1769,2.1843,2.1759,2.1849,2.1852,2.1836,2.1991,2.2011,2.2135,2.1941,2.1944,2.1946,0,2.1253,2.1308,2.144,2.1491,2.1519,2.1581,2.1646,2.1703,2.1754,2.1766,2.1811,2.1808,2.1891,2.1837,2.1952,2.1895,2.1932,2.1951,2.1956,2.1966,2.1906,2.2006,2.2174,2.2193,2.1974,2.1971,2.1969,0,2.135,2.1458,2.1551,2.1579,2.164,2.1684,2.1712,2.176,2.1802,2.1859,2.1886,2.1953,2.199,2.2042,2.2058,2.2017,2.2172,2.212,2.2185,2.2185,2.2219,2.2217,2.2397,2.2242,2.2242,2.2241,2.2241,0,2.149,2.1571,2.1595,2.1653,2.1744,2.1753,2.1843,2.1869,2.1911,2.1975,2.1966,2.2026,2.2042,2.2106,2.2119,2.2212,2.2229,2.2241,2.2244,2.2243,2.2241,2.2268,2.226,2.2246,2.2245,2.2244,2.2243,0,2.1615,2.1634,2.1734,2.1784,2.1798,2.1864,2.1907,2.1963,2.1982,2.2062,2.2082,2.2113,2.2187,2.2207,2.2296,2.2305,2.2415,2.241,2.2398,2.2398,2.2463,2.2457,2.2667,2.2695,2.252,2.2522,2.2523,0,2.1703,2.1765,2.1822,2.1862,2.1892,2.1958,2.2,2.2012,2.2056,2.212,2.2168,2.2241,2.2299,2.2418,2.245,2.2518,2.2515,2.2584,2.2525,2.2522,2.2517,2.2514,2.2521,2.2595,2.2597,2.2599,2.26,0,2.1859,2.1865,2.1925,2.1989,2.2039,2.2091,2.214,2.2174,2.2193,2.2244,2.2319,2.2364,2.2454,2.2527,2.2596,2.2626,2.2618,2.2618,2.2637,2.2637,2.2627,2.2634,2.2429,2.2613,2.2612,2.2611,2.261,2.261,2.1969,2.2023,2.2072,2.2139,2.2177,2.2223,2.2278,2.2304,2.2366,2.244,2.2443,2.2525,2.2576,2.2667,2.2701,2.2766,2.2746,2.2773,2.278,2.2787,2.2793,2.2616,2.2779,2.2778,2.2778,2.2778,2.2778,0,2.2125,2.2155,2.2217,2.2285,2.2339,2.2323,2.2377,2.2424,2.2495,2.2542,2.26,2.2687,2.2757,2.2794,2.2864,2.2909,2.2907,2.2928,2.2925,2.2933,2.2807,2.2783,2.2928,2.2928,2.2928,2.2928,2.2928,2.2928,2.2212,2.2304,2.2316,2.2427,2.2457,2.2536,2.2568,2.2611,2.2649,2.2745,2.2803,2.2826,2.287,2.2944,2.3008,2.3017,2.3044,2.3068,2.3075,2.2957,2.2941,2.2927,2.2905,2.3073,2.3073,2.3195,2.3196,2.3197]},{"header":{"parameterUnit":"m.s-1","parameterCategory":1,"la1":30.2991,"la2":30.254,"lo1":-89.0895,"lo2":-89.0444,"dy":0.0017,"dx":0.0017,"nx":28,"ny":28,"refTime":"2024-09-29T21:00:00:Z","depth":0,"parameterNumber":3,"parameterNumberName":"V-component_of_WINDS"},"data":[0,0,0,0,0,0,0,0,0,0,0,0,0,0,0,0,0,0,0,0,0,0,0,0,0,0,0,0,0,0,0,0,0,0,0,0,0,0,0,0,0,0,0,0,0,0,0,0,0,0,0,0,0,0,0,0,0,0,-0.8684,-0.8685,0,-0.8734,-0.8735,-0.8735,-0.8777,-0.8778,-0.8778,-0.8779,-0.8827,-0.8828,-0.8829,0,0,0,0,0,0,0,0,0,0,0,0,0,-0.8623,-0.8624,-0.8684,-0.8685,-0.8686,-0.8734,-0.8735,-0.8735,-0.8777,-0.8778,-0.8779,-0.8779,-0.8827,-0.8828,-0.8829,0,0,0,0,0,0,0,0,0,0,0,0,0,-0.8659,-0.8625,-0.8684,-0.8712,-0.8716,-0.8734,-0.8735,-0.8736,-0.8777,-0.8778,-0.8779,-0.8779,-0.8827,-0.8828,-0.8829,-0.8823,0,0,-0.8833,-0.8834,0,0,0,0,0,0,0,0,-0.8657,-0.8661,-0.8708,-0.8711,-0.8714,-0.875,-0.8731,-0.8765,-0.8777,-0.8754,-0.8779,-0.878,-0.8801,-0.8804,-0.8812,-0.8825,-0.8827,-0.8833,-0.8834,-0.8834,-0.8835,0,0,0,0,0,0,0,-0.8655,-0.8659,-0.8704,-0.8708,-0.8712,-0.8722,-0.8728,-0.8738,-0.8773,-0.8756,-0.8759,-0.8764,-0.8803,-0.8811,-0.8814,-0.8828,-0.8833,-0.8834,-0.8835,-0.8836,-0.8838,-0.8837,0,0,0,0,0,0,-0.8648,-0.8657,-0.8702,-0.8706,-0.8687,-0.8722,-0.8729,-0.8738,-0.8773,-0.8779,-0.8764,-0.8766,-0.8808,-0.8812,-0.8815,-0.881,-0.8834,-0.8836,-0.8836,-0.8839,-0.8838,-0.8837,0,0,0,0,0,0,-0.8647,-0.8652,-0.87,-0.8682,-0.8689,-0.8723,-0.8732,-0.8739,-0.8747,-0.8779,-0.8785,-0.8766,-0.8809,-0.8814,-0.8821,-0.8812,-0.8836,-0.8837,-0.884,-0.8838,-0.8837,-0.8799,0,0,0,0,0,0,-0.8645,-0.8651,-0.8649,-0.8682,-0.869,-0.8706,-0.8732,-0.8739,-0.8749,-0.8753,-0.8782,-0.8788,-0.881,-0.8819,-0.8822,-0.8814,-0.8838,-0.884,-0.8839,-0.8838,-0.8801,-0.8797,-0.8793,0,0,0,0,0,-0.8642,-0.8636,-0.8649,-0.8654,-0.8689,-0.8705,-0.871,-0.8736,-0.8748,-0.8746,-0.8767,-0.8787,-0.8813,-0.8819,-0.8823,-0.8816,-0.8841,-0.8839,-0.8838,-0.8803,-0.8798,-0.8793,0,0,0,0,0,0,-0.8601,-0.8641,-0.8656,-0.866,-0.8679,-0.8712,-0.8711,-0.8729,-0.8745,-0.8747,-0.8779,-0.8785,-0.8788,-0.8803,-0.8809,-0.8811,-0.883,-0.8829,-0.8802,-0.8797,-0.8793,-0.8789,-0.8839,0,0,0,0,0,-0.8592,-0.8603,-0.8637,-0.8637,-0.8646,-0.8677,-0.8685,-0.8704,-0.8724,-0.8732,-0.8753,-0.8772,-0.8784,-0.8791,-0.8805,-0.8804,-0.8811,-0.8801,-0.8797,-0.8793,-0.8792,-0.8792,-0.8788,-0.8832,-0.8832,-0.8832,0,0,-0.8574,-0.8598,-0.8602,-0.863,-0.8646,-0.8656,-0.8683,-0.8692,-0.8699,-0.8733,-0.8741,-0.8757,-0.878,-0.8783,-0.8786,-0.8795,-0.8781,-0.8791,-0.8788,-0.8789,-0.879,-0.8786,-0.8782,-0.8831,-0.8831,-0.8831,0,0,-0.8546,-0.8565,-0.8568,-0.8584,-0.861,-0.863,-0.8631,-0.8661,-0.8674,-0.8683,-0.8708,-0.8717,-0.8738,-0.8753,-0.8763,-0.8741,-0.8759,-0.8745,-0.8723,-0.8723,-0.8719,-0.8716,-0.8708,-0.8704,-0.8743,-0.8743,-0.8743,0,-0.8521,-0.8537,-0.8566,-0.8574,-0.8585,-0.8617,-0.8619,-0.8634,-0.8661,-0.8668,-0.8679,-0.8706,-0.8723,-0.873,-0.8725,-0.8733,-0.8733,-0.8741,-0.8718,-0.8715,-0.8712,-0.8705,-0.8701,-0.8741,-0.8741,-0.8742,-0.8742,0,-0.8503,-0.8514,-0.8513,-0.854,-0.8551,-0.8555,-0.8585,-0.8592,-0.861,-0.8629,-0.8638,-0.866,-0.8678,-0.8682,-0.8699,-0.8691,-0.8696,-0.8712,-0.873,-0.8706,-0.8699,-0.8696,-0.8738,-0.8739,-0.874,-0.874,0,0,-0.8449,-0.8494,-0.8492,-0.8505,-0.8536,-0.8544,-0.855,-0.8569,-0.8574,-0.8593,-0.8598,-0.8615,-0.863,-0.8641,-0.8661,-0.8661,-0.8641,-0.8677,-0.8678,-0.8668,-0.8633,-0.862,-0.8616,-0.8654,-0.8654,-0.8653,-0.863,0,-0.8426,-0.8439,-0.8466,-0.847,-0.848,-0.8511,-0.8516,-0.8535,-0.8553,-0.8564,-0.8583,-0.8595,-0.8614,-0.8621,-0.8623,-0.8643,-0.8634,-0.8645,-0.8658,-0.8658,-0.865,-0.8612,-0.8599,-0.8576,-0.8628,-0.8627,-0.8627,0,-0.84,-0.8417,-0.8422,-0.8452,-0.8458,-0.8462,-0.8481,-0.8491,-0.8513,-0.8526,-0.8539,-0.8561,-0.8568,-0.8586,-0.8595,-0.8602,-0.8609,-0.862,-0.862,-0.8621,-0.864,-0.8611,-0.8569,-0.8565,-0.8623,-0.8624,-0.8624,0,-0.8359,-0.8383,-0.839,-0.84,-0.8435,-0.8437,-0.8452,-0.8475,-0.8484,-0.8501,-0.8507,-0.8524,-0.8533,-0.8545,-0.857,-0.8581,-0.8577,-0.8597,-0.8587,-0.8586,-0.8584,-0.8583,-0.8541,-0.859,-0.859,-0.859,-0.859,0,-0.8329,-0.8331,-0.8372,-0.8375,-0.8378,-0.8409,-0.8411,-0.8428,-0.8449,-0.8456,-0.8484,-0.849,-0.8523,-0.8533,-0.8553,-0.8557,-0.8561,-0.8571,-0.8576,-0.8568,-0.8567,-0.8572,-0.8574,-0.8589,-0.8589,-0.859,-0.859,0,-0.8283,-0.8311,-0.832,-0.8353,-0.8361,-0.8362,-0.839,-0.8394,-0.8415,-0.8423,-0.8427,-0.8458,-0.8471,-0.8498,-0.8518,-0.8531,-0.853,-0.854,-0.8523,-0.8526,-0.8514,-0.8514,-0.8473,-0.8468,-0.8521,-0.852,-0.852,0,-0.8262,-0.8264,-0.8298,-0.8305,-0.8319,-0.833,-0.834,-0.837,-0.8379,-0.8405,-0.8406,-0.8421,-0.8435,-0.8453,-0.8477,-0.8492,-0.8502,-0.8487,-0.8504,-0.8496,-0.8501,-0.85,-0.85,-0.8482,-0.8481,-0.8481,-0.848,0,-0.822,-0.8234,-0.8248,-0.8266,-0.8277,-0.8293,-0.831,-0.8314,-0.8349,-0.8358,-0.8371,-0.8382,-0.8403,-0.8417,-0.8436,-0.845,-0.847,-0.8475,-0.8473,-0.8464,-0.8453,-0.8458,-0.8511,-0.8475,-0.8476,-0.8476,-0.8476,-0.8477,-0.8185,-0.8189,-0.8213,-0.8227,-0.8243,-0.8259,-0.8264,-0.8286,-0.8298,-0.8318,-0.8335,-0.8347,-0.8369,-0.8396,-0.841,-0.8419,-0.8429,-0.8427,-0.8426,-0.8424,-0.842,-0.8453,-0.8423,-0.8423,-0.8423,-0.8423,-0.8423,0,-0.8144,-0.8162,-0.8175,-0.8198,-0.8209,-0.8229,-0.8249,-0.8256,-0.8267,-0.8286,-0.8299,-0.8314,-0.8328,-0.8354,-0.837,-0.8372,-0.8382,-0.8375,-0.8375,-0.8378,-0.8411,-0.8411,-0.8367,-0.8367,-0.8367,-0.8367,-0.8367,-0.8367,-0.8124,-0.8131,-0.8147,-0.8162,-0.8179,-0.8191,-0.8201,-0.8215,-0.8231,-0.8247,-0.8259,-0.8276,-0.8297,-0.8315,-0.8329,-0.8336,-0.834,-0.833,-0.834,-0.837,-0.8375,-0.838,-0.838,-0.8331,-0.8331,-0.8305,-0.8305,-0.8305]}]]